Regional Weather Roundup
Issued by NWS

Home | Current Version | Previous Version | Graphics & Text | Print | Product List | Glossary On
Versions: 1 2 3 4 5 6 7 8 9 10 11 12 13 14 15 16 17 18 19 20 21 22 23 24 25 26 27 28 29 30 31 32 33 34 35 36 37 38 39 40 41 42 43 44 45 46 47 48 49 50
000
ASUS45 KPSR 220000
RWRAZ

ARIZONA HOURLY REGIONAL WEATHER ROUNDUP
NATIONAL WEATHER SERVICE PHOENIX AZ
500 PM MST THU MAY 21 2015

NOTE: FAIR INDICATES FEW OR NO CLOUDS BELOW 12,000 FEET WITH NO
SIGNIFICANT WEATHER AND/OR OBSTRUCTIONS TO VISIBILITY.

AZZ001>003-036-220100-
NORTHWEST ARIZONA

CITY           SKY/WX    TMP DP  RH WIND       PRES   REMARKS
KINGMAN        PTSUNNY   78  22  12 S8G20     29.82F
6HR MIN TEMP:  71; 6HR MAX TEMP:  78;

$$

AZZ004>008-015-016-018-220100-
NORTH CENTRAL ARIZONA

CITY           SKY/WX    TMP DP  RH WIND       PRES   REMARKS
GRAND CANYON   CLOUDY    53  39  59 SE8       29.97S
6HR MIN TEMP:  50; 6HR MAX TEMP:  64; 6HR PCP:  0.03;

WILLIAMS       MOSUNNY   59  19  21 S16G28    30.04S
PRESCOTT       PTSUNNY   66  25  21 SW20      29.92S
6HR MIN TEMP:  66; 6HR MAX TEMP:  72;

FLAGSTAFF      NOT AVBL
PAYSON         MOSUNNY   68  23  18 SW16G26   29.95S
$$

AZZ009>014-017-220100-
NORTHEAST ARIZONA

CITY           SKY/WX    TMP DP  RH WIND       PRES   REMARKS
WINSLOW        NOT AVBL
SAINT JOHNS    MOSUNNY   72  19  13 SW20G36   29.89R
6HR MIN TEMP:  68; 6HR MAX TEMP:  78;

WINDOW ROCK    PTSUNNY   65  20  17 S26G38    29.96S
6HR MIN TEMP:  65; 6HR MAX TEMP:  72;

SHOW LOW       PTSUNNY   64  18  16 S21G26    29.97S
$$

AZZ023-220100-
GREATER PHOENIX AREA

CITY           SKY/WX    TMP DP  RH WIND       PRES   REMARKS
PHOENIX        PTSUNNY   88  32  13 W16G22    29.72F
6HR MIN TEMP:  84; 6HR MAX TEMP:  91;

BUCKEYE        SUNNY     84  27  12 S13G21    29.76S
GLENDALE       MOSUNNY   88  32  13 SW17      29.75F
LUKE AFB       MOSUNNY   86  32  14 SW16      29.74S
6HR MIN TEMP:  82; 6HR MAX TEMP:  87; 6HR PCP: TRACE;

DEER VALLEY    MOSUNNY   84  31  14 SW18G24   29.74S
6HR MIN TEMP:  79; 6HR MAX TEMP:  86;

SCOTTSDALE     MOSUNNY   86  26  11 SW12G21   29.75F
6HR MIN TEMP:  79; 6HR MAX TEMP:  87;

MESA-FALCON    MOSUNNY  N/A N/A N/A SW14      29.73F
MESA-GATEWAY   MOSUNNY   86  30  13 SW17G28   29.76F
CHANDLER       MOSUNNY   88  28  11 S23       29.74S
$$

AZZ027-028-220100-
SOUTHWEST MARICOPA COUNTY AND PINAL COUNTY

CITY           SKY/WX    TMP DP  RH WIND       PRES   REMARKS
CASA GRANDE    SUNNY     84  30  14 SW22G28   29.75S
6HR MIN TEMP:  79; 6HR MAX TEMP:  90;

$$

AZZ503-504-507>509-220100-
SOUTHEAST ARIZONA

CITY           SKY/WX    TMP DP  RH WIND       PRES   REMARKS
TUCSON         MOSUNNY   84  25  11 SW20G33   29.83S
6HR MIN TEMP:  79; 6HR MAX TEMP:  87;

DAVIS-MONTHAN  SUNNY     84  25  11 SW21      29.81S
6HR MIN TEMP:  78; 6HR MAX TEMP:  86;

RYAN FIELD       N/A     86  28  12 SW18G37   29.82S
NOGALES        SUNNY     77  23  13 S20G37    29.92S
6HR MIN TEMP:  77; 6HR MAX TEMP:  83;

SIERRA VISTA   SUNNY     75  19  12 SW24G32   29.95S
6HR MIN TEMP:  73; 6HR MAX TEMP:  80;

SAFFORD        PTSUNNY   85  14   7 SW16G24   29.77S
6HR MIN TEMP:  80; 6HR MAX TEMP:  89;

$$

AZZ020-021-025-026-031-220100-
SOUTHWEST ARIZONA

CITY           SKY/WX    TMP DP  RH WIND       PRES   REMARKS
YUMA           MOSUNNY   84  39  20 W12G18    29.76F
6HR MIN TEMP:  77; 6HR MAX TEMP:  86;

$$

CAZ031-033-041-043-047-048-061-220100-
SOUTHERN CALIFORNIA

CITY           SKY/WX    TMP DP  RH WIND       PRES   REMARKS
DOWNTOWN L.A.  SUNNY     66  48  52 VRB3      29.92F
6HR MIN TEMP:  66; 6HR MAX TEMP:  71;

L.A. AIRPORT   MOSUNNY   64  50  60 W16       29.94F
6HR MIN TEMP:  63; 6HR MAX TEMP:  67;

SAN DIEGO      PTSUNNY   64  49  57 SW13      29.99S
6HR MIN TEMP:  62; 6HR MAX TEMP:  67;

BURBANK        PTSUNNY   66  45  46 VRB7      29.91F
6HR MIN TEMP:  62; 6HR MAX TEMP:  67;

ONTARIO        SUNNY     68  45  43 SW14      29.91F
6HR MIN TEMP:  63; 6HR MAX TEMP:  69;

RIVERSIDE      SUNNY     70  46  42 W9        29.90F
6HR MIN TEMP:  63; 6HR MAX TEMP:  71;

PALM SPRINGS   SUNNY     79  38  22 NW22G32   29.75F
6HR MIN TEMP:  76; 6HR MAX TEMP:  81;

EL CENTRO NAS  MOSUNNY   77  39  25 W36G43    29.80F
6HR MIN TEMP:  77; 6HR MAX TEMP:  81;

IMPERIAL       SUNNY     76  41  28 W28G36    29.76F
6HR MIN TEMP:  74; 6HR MAX TEMP:  80;

BLYTHE         SUNNY     84  37  18 SW17      29.73F
6HR MIN TEMP:  79; 6HR MAX TEMP:  86;

$$

NVZ020-UTZ003-220100-
SOUTHERN NEVADA-UTAH

CITY           SKY/WX    TMP DP  RH WIND       PRES   REMARKS
LAS VEGAS      NOT AVBL
SALT LAKE CITY CLOUDY    62  44  51 N9        29.89F
6HR MIN TEMP:  60; 6HR MAX TEMP:  68; 6HR PCP: TRACE;

$$

NMZ009-TXZ055-220100-
NEW MEXICO-WEST TEXAS

CITY           SKY/WX    TMP DP  RH WIND       PRES   REMARKS
ALBUQUERQUE    RAIN      53  48  83 NE13      30.10R
6HR MIN TEMP:  53; 6HR MAX TEMP:  64; 6HR PCP:  0.06;

EL PASO        MOSUNNY   75  51  43 E20G28    29.90F
6HR MIN TEMP:  68; 6HR MAX TEMP:  79;

$$


........................KEY........................
SKY/WX - SKY CONDITION/WEATHER
TMP    - TEMPERATURE IN FAHRENHEIT
DP     - DEW POINT IN FAHRENHEIT
RH     - RELATIVE HUMIDITY IN PERCENT
WIND   - DIRECTION AND SPEED IN MILES PER HOUR (MPH)
VRB    - VARIABLE WIND DIRECTION
PRES   - MEAN SEA LEVEL PRESSURE IN INCHES OF MERCURY
         F - FALLING PRESSURE   R - RISING PRESSURE
         S - STEADY PRESSURE
VSB    - VISIBILITY IN MILES
HX     - HEAT INDEX IN FAHRENHEIT
WCI    - WIND CHILL INDEX IN FAHRENHEIT
TC     - TEMPERATURE IN CELSIUS WHICH IS ALSO KNOWN AS
         TEMPERATURE IN CENTIGRADE
AFB    - AIR FORCE BASE
         LUKE AFB IS LUKE AIR FORCE BASE
         DAVIS-MONTHAN IS DAVIS-MONTHAN AIR FORCE BASE
NAS    - NAVAL AIR STATION
         EL CENTRO NAS IS EL CENTRO NAVAL AIR STATION
N/A    - NOT AVAILABLE



USA.gov is the U.S. government's official web portal to all federal, state and local government web resources and services.